When you browse on this site, cookies collect data to enhance your experience and personalize the content and advertising you see.
Visit our Privacy Policy to learn more. By continuing to use the site, you agree to this use of cookies and data.
  • In Sweden
  • List of Countries
  • For 7 days
  • Water Temperature
  • Weather Map
  • Weather Widgets
  • user-avatar
    Login

    Hourly Weather Ashkelon

    Today, 23 January, Thursday

    Time Temperature Precipitation Wind Pressure Humidity
    00:00 +12°C° 0 mm 1 mps 763 mmHg 70%
    01:00 +12°C° 0 mm 1 mps 763 mmHg 70%
    02:00 +12°C° 0 mm 1 mps 762 mmHg 70%
    03:00 +12°C° 0 mm 2 mps 762 mmHg 71%
    04:00 +12°C° 0 mm 2 mps 762 mmHg 73%
    05:00 +12°C° 0 mm 2 mps 762 mmHg 75%
    06:00 +11°C° 0 mm 3 mps 763 mmHg 74%
    07:00 +11°C° 0 mm 3 mps 763 mmHg 74%
    08:00 +12°C° 0 mm 4 mps 764 mmHg 73%
    09:00 +12°C° 0 mm 5 mps 764 mmHg 72%
    10:00 +13°C° 0 mm 5 mps 764 mmHg 71%
    11:00 +13°C° 0 mm 6 mps 764 mmHg 69%
    12:00 +13°C° 0.1 mm 6 mps 763 mmHg 69%
    13:00 +14°C° 0.1 mm 7 mps 763 mmHg 69%
    14:00 +14°C° 0.1 mm 7 mps 762 mmHg 68%
    15:00 +14°C° 0.1 mm 7 mps 762 mmHg 69%
    16:00 +12°C° 0.1 mm 7 mps 762 mmHg 70%
    17:00 +13°C° 0.1 mm 6 mps 762 mmHg 71%
    18:00 +13°C° 0 mm 6 mps 762 mmHg 70%
    19:00 +13°C° 0 mm 6 mps 762 mmHg 70%
    20:00 +11°C° 0 mm 6 mps 762 mmHg 70%
    21:00 +11°C° 0.2 mm 6 mps 762 mmHg 73%
    22:00 +12°C° 0.2 mm 7 mps 761 mmHg 76%
    23:00 +12°C° 0.2 mm 7 mps 761 mmHg 80%

    Tomorrow, 24 January, Friday

    Time Temperature Precipitation Wind Pressure Humidity
    00:00 +12°C° 0.3 mm 8 mps 760 mmHg 80%
    01:00 +12°C° 0.3 mm 9 mps 760 mmHg 80%
    02:00 +12°C° 0.3 mm 10 mps 759 mmHg 79%
    03:00 +12°C° 0.8 mm 11 mps 758 mmHg 80%
    04:00 +12°C° 0.8 mm 11 mps 758 mmHg 81%
    05:00 +11°C° 0.8 mm 11 mps 758 mmHg 82%
    06:00 +11°C° 1 mm 11 mps 758 mmHg 82%
    07:00 +11°C° 1 mm 10 mps 759 mmHg 81%
    08:00 +11°C° 1 mm 9 mps 759 mmHg 81%
    09:00 +12°C° 0.1 mm 10 mps 759 mmHg 75%
    10:00 +12°C° 0.1 mm 11 mps 760 mmHg 69%
    11:00 +12°C° 0.1 mm 11 mps 760 mmHg 63%
    12:00 +12°C° 0.1 mm 11 mps 761 mmHg 62%
    13:00 +12°C° 0.1 mm 10 mps 761 mmHg 61%
    14:00 +12°C° 0.1 mm 10 mps 761 mmHg 60%
    15:00 +11°C° 0.1 mm 10 mps 762 mmHg 61%
    16:00 +11°C° 0.1 mm 9 mps 762 mmHg 62%
    17:00 +10°C° 0.1 mm 8 mps 763 mmHg 63%
    18:00 +10°C° 0 mm 8 mps 763 mmHg 63%
    19:00 +9°C° 0 mm 8 mps 764 mmHg 62%
    20:00 +9°C° 0 mm 8 mps 765 mmHg 61%
    21:00 +9°C° 0 mm 7 mps 765 mmHg 63%
    22:00 +9°C° 0 mm 6 mps 765 mmHg 65%
    23:00 +8°C° 0 mm 5 mps 766 mmHg 67%

    Day after tomorrow, 25 January, Saturday

    Time Temperature Precipitation Wind Pressure Humidity
    00:00 +8°C° 0 mm 5 mps 765 mmHg 65%
    01:00 +8°C° 0 mm 5 mps 765 mmHg 64%
    02:00 +8°C° 0 mm 4 mps 765 mmHg 63%
    03:00 +10°C° 0 mm 4 mps 765 mmHg 63%
    04:00 +10°C° 0 mm 4 mps 765 mmHg 63%
    05:00 +10°C° 0 mm 4 mps 765 mmHg 64%
    06:00 +10°C° 0 mm 4 mps 766 mmHg 63%
    07:00 +10°C° 0 mm 3 mps 766 mmHg 62%
    08:00 +10°C° 0 mm 2 mps 767 mmHg 62%
    09:00 +12°C° 0 mm 2 mps 767 mmHg 58%
    10:00 +13°C° 0 mm 2 mps 768 mmHg 54%
    11:00 +13°C° 0 mm 3 mps 768 mmHg 50%
    12:00 +14°C° 0 mm 3 mps 768 mmHg 50%
    13:00 +14°C° 0 mm 3 mps 767 mmHg 50%
    14:00 +14°C° 0 mm 3 mps 767 mmHg 49%
    15:00 +13°C° 0 mm 3 mps 767 mmHg 53%
    16:00 +13°C° 0 mm 3 mps 767 mmHg 56%
    17:00 +12°C° 0 mm 3 mps 767 mmHg 60%
    18:00 +12°C° 0 mm 2 mps 768 mmHg 61%
    19:00 +12°C° 0 mm 2 mps 768 mmHg 62%
    20:00 +11°C° 0 mm 1 mps 768 mmHg 63%
    21:00 +11°C° 0 mm 1 mps 768 mmHg 65%
    22:00 +10°C° 0 mm 1 mps 768 mmHg 67%
    23:00 +10°C° 0 mm 1 mps 768 mmHg 68%

    26 January, Sunday

    Time Temperature Precipitation Wind Pressure Humidity
    00:00 +10°C° 0 mm 1 mps 768 mmHg 68%
    01:00 +10°C° 0 mm 1 mps 768 mmHg 68%
    02:00 +10°C° 0 mm 1 mps 768 mmHg 67%
    03:00 +8°C° 0 mm 2 mps 768 mmHg 67%
    04:00 +8°C° 0 mm 2 mps 767 mmHg 67%
    05:00 +8°C° 0 mm 2 mps 767 mmHg 67%
    06:00 +9°C° 0 mm 2 mps 768 mmHg 66%
    07:00 +11°C° 0 mm 1 mps 768 mmHg 66%
    08:00 +11°C° 0 mm 1 mps 769 mmHg 65%
    09:00 +12°C° 0 mm 1 mps 769 mmHg 61%
    10:00 +13°C° 0 mm 1 mps 769 mmHg 57%
    11:00 +14°C° 0 mm 1 mps 768 mmHg 53%
    12:00 +15°C° 0 mm 1 mps 768 mmHg 54%
    13:00 +15°C° 0 mm 2 mps 767 mmHg 56%
    14:00 +14°C° 0 mm 3 mps 767 mmHg 57%
    15:00 +15°C° 0 mm 2 mps 767 mmHg 62%
    16:00 +14°C° 0 mm 2 mps 767 mmHg 67%
    17:00 +13°C° 0 mm 1 mps 767 mmHg 71%
    18:00 +13°C° 0 mm 1 mps 767 mmHg 73%
    19:00 +12°C° 0 mm 1 mps 767 mmHg 75%
    20:00 +12°C° 0 mm 1 mps 767 mmHg 77%
    21:00 +11°C° 0 mm 1 mps 767 mmHg 77%
    22:00 +11°C° 0 mm 1 mps 767 mmHg 78%
    23:00 +11°C° 0 mm 1 mps 767 mmHg 78%

    27 January, Monday

    Time Temperature Precipitation Wind Pressure Humidity
    00:00 +11°C° 0 mm 1 mps 767 mmHg 78%
    01:00 +11°C° 0 mm 1 mps 766 mmHg 79%
    02:00 +11°C° 0 mm 1 mps 766 mmHg 79%
    03:00 +10°C° 0 mm 1 mps 766 mmHg 80%
    04:00 +10°C° 0 mm 1 mps 766 mmHg 81%
    05:00 +10°C° 0 mm 1 mps 765 mmHg 81%
    06:00 +11°C° 0 mm 1 mps 766 mmHg 79%
    07:00 +12°C° 0 mm 1 mps 766 mmHg 77%
    08:00 +12°C° 0 mm 1 mps 766 mmHg 75%
    09:00 +14°C° 0 mm 2 mps 766 mmHg 71%
    10:00 +15°C° 0 mm 2 mps 766 mmHg 67%
    11:00 +16°C° 0 mm 2 mps 766 mmHg 63%
    12:00 +17°C° 0 mm 2 mps 765 mmHg 62%
    13:00 +17°C° 0 mm 3 mps 765 mmHg 61%
    14:00 +18°C° 0 mm 3 mps 764 mmHg 60%
    15:00 +17°C° 0 mm 4 mps 764 mmHg 65%
    16:00 +15°C° 0 mm 4 mps 764 mmHg 71%
    17:00 +14°C° 0 mm 4 mps 764 mmHg 76%
    18:00 +13°C° 0 mm 4 mps 764 mmHg 78%
    19:00 +13°C° 0 mm 4 mps 764 mmHg 80%
    20:00 +13°C° 0 mm 4 mps 764 mmHg 82%
    21:00 +12°C° 0 mm 3 mps 764 mmHg 81%
    22:00 +12°C° 0 mm 3 mps 763 mmHg 79%
    23:00 +13°C° 0 mm 2 mps 763 mmHg 78%

    28 January, Tuesday

    Time Temperature Precipitation Wind Pressure Humidity
    00:00 +13°C° 0 mm 2 mps 763 mmHg 78%
    01:00 +13°C° 0 mm 2 mps 762 mmHg 77%
    02:00 +11°C° 0 mm 3 mps 762 mmHg 76%
    03:00 +13°C° 0 mm 2 mps 762 mmHg 75%
    04:00 +13°C° 0 mm 2 mps 762 mmHg 75%
    05:00 +13°C° 0 mm 2 mps 761 mmHg 74%
    06:00 +13°C° 0 mm 2 mps 761 mmHg 70%
    07:00 +14°C° 0 mm 2 mps 762 mmHg 65%
    08:00 +15°C° 0 mm 2 mps 762 mmHg 61%
    09:00 +16°C° 0 mm 1 mps 761 mmHg 54%
    10:00 +19°C° 0 mm 1 mps 761 mmHg 46%
    11:00 +20°C° 0 mm 1 mps 761 mmHg 39%
    12:00 +19°C° 0 mm 2 mps 760 mmHg 41%
    13:00 +20°C° 0 mm 2 mps 760 mmHg 43%
    14:00 +20°C° 0 mm 2 mps 759 mmHg 44%
    15:00 +19°C° 0 mm 2 mps 759 mmHg 50%
    16:00 +18°C° 0 mm 2 mps 759 mmHg 56%
    17:00 +17°C° 0 mm 2 mps 759 mmHg 62%
    18:00 +16°C° 0 mm 2 mps 759 mmHg 61%
    19:00 +16°C° 0 mm 2 mps 759 mmHg 60%
    20:00 +16°C° 0 mm 1 mps 759 mmHg 58%
    21:00 +16°C° 0 mm 2 mps 759 mmHg 53%
    22:00 +16°C° 0 mm 2 mps 759 mmHg 48%
    23:00 +16°C° 0 mm 2 mps 759 mmHg 43%
    Show more